Location: Rounton
(54.4000°N, 1.3500°W)
Time: 08:34:36
(UTC+01:00)

Vanguard 3 - Visible Passes

Search period start: 23 September 2023 00:00
Search period end: 03 October 2023 00:00
Orbit: 508 x 3242 km, 33.3° (Epoch: 22 September)

Date Brightness Start Highest point End Pass type
(mag) Time Alt. Az. Time Alt. Az. Time Alt. Az.
26 Sep 9.7 21:36:46 10° SSW 21:38:15 11° S 21:38:15 11° S visible
27 Sep 9.6 20:18:38 10° SSW 20:22:19 13° S 20:25:24 10° SSE visible
28 Sep 9.6 21:12:35 10° SW 21:16:36 14° S 21:18:00 13° S visible
29 Sep 9.7 19:54:22 10° SSW 20:00:19 16° S 20:04:51 10° SE visible
29 Sep 9.8 22:08:03 10° SW 22:10:00 12° SSW 22:10:00 12° SSW visible
30 Sep 9.6 20:48:48 10° SW 20:54:37 17° S 20:57:38 13° SSE visible
01 Oct 9.8 19:30:16 10° SW 19:38:10 19° S 19:43:54 10° SE visible
01 Oct 9.7 21:44:22 10° SW 21:48:41 14° SSW 21:49:36 14° SSW visible
02 Oct 9.7 20:25:02 10° SW 20:32:30 19° SSW 20:37:13 12° SSE visible
